Location: Aulnoy
(48.8410°N, 3.0967°E)
Time: 19:45:24
(UTC+00:00)

Cosmos 909 Rocket - Pass Details

Date: 09 February 2023
Orbit: 990 x 2090 km, 65.9° (Epoch: 25 March)

Event Time Altitude Azimuth Distance (km) Brightness Sun altitude
Rises 20:09:49 0° 322° (NW) 4,195 8.0 -31.8°
Reaches altitude 10° 20:12:46 10° 320° (NW) 3,096 7.2 -32.3°
Enters shadow 20:19:28 70° 263° (W) 1,108 4.3 -33.3°
